Culdrose, United Kingdom

2:56 AM GMT on November 24, 2017 (GMT +0000)
Culdrose Navy

Weather History for EGDR - October, 2012

Change the Weather History Date:

Tuesday, October 2, 2012

  Actual Average Record
Temperature  
Mean Temperature 56 °F -  
Max Temperature 59 °F 56 °F 69 °F (2011)
Min Temperature 53 °F 48 °F 45 °F (2015)
Degree Days  
Heating Degree Days 9    
Growing Degree Days 6 (Base 50)    
Moisture  
Dew Point 52 °F    
Average Humidity 84    
Maximum Humidity 94    
Minimum Humidity 72    
Precipitation  
Precipitation 0.00 in - - ()
Sea Level Pressure  
Sea Level Pressure 29.81 in    
Wind  
Wind Speed 14 mph ()    
Max Wind Speed 24 mph    
Max Gust Speed 40 mph    
Visibility 6.8 miles    
Events Rain    
Averages and records for this station are not official NWS values.
T = Trace of Precipitation, MM = Missing Value Source: Averaged Metar Reports

Daily Weather History Graph

Daily Weather History Graph

Search for Another Location

Airport or City:

Trip Planner

Search our weather history database for the weather conditions in past years. The results will help you decide how hot, cold, wet, or windy it might be!

Date:

Astronomy

Oct. 02, 2012 Rise Set
Actual Time 7:23 AM BST 6:56 PM BST
Civil Twilight 6:50 AM BST 7:28 PM BST
Nautical Twilight 6:13 AM BST 8:06 PM BST
Astronomical Twilight 5:34 AM BST 8:44 PM BST
Moon 7:40 PM BST (10/2) 9:55 AM BST (10/2)
Length of Visible Light 12h 37m
Length of Day
11h 33m
Waning Gibbous, 95% of the Moon is Illuminated
Oct 2
Waning Gibbous
Oct 8
Last Quarter
Oct 15
New
Oct 22
First Quarter
Oct 29
Full

Hourly Weather History & Observations

Time (BST) Temp. Dew Point Humidity Pressure Visibility Wind Dir Wind Speed Gust Speed Precip Events Conditions
12:50 AM 56 °F 51 °F 79% 29.92 in 11 mi WSW 9.2 mph - -   Haze
12:50 AM 55.4 °F 51.8 °F 88% 29.92 in 6.2 mi WSW 9.2 mph 21.9 mph N/A   Haze
1:50 AM 55.4 °F 50.0 °F 82% 29.89 in 6.2 mi WSW 13.8 mph 25.3 mph N/A   Haze
2:50 AM 55.4 °F 50.0 °F 82% 29.89 in 6.2 mi WSW 13.8 mph - N/A   Haze
3:50 AM 56 °F 51 °F 78% 29.89 in 11 mi WSW 16.1 mph - -   Haze
3:50 AM 57.2 °F 51.8 °F 82% 29.89 in 6.2 mi WSW 16.1 mph 27.6 mph N/A   Haze
4:50 AM 57.2 °F 51.8 °F 82% 29.86 in 6.2 mi WSW 16.1 mph - N/A   Mostly Cloudy
5:50 AM 57.2 °F 51.8 °F 82% 29.86 in 6.2 mi WSW 18.4 mph - N/A   Mostly Cloudy
6:50 AM 53 °F 50 °F 85% 29.86 in 7 mi West 11.5 mph - -   Mostly Cloudy
6:50 AM 53.6 °F 50.0 °F 88% 29.83 in 6.2 mi West 11.5 mph 25.3 mph N/A   Mostly Cloudy
7:50 AM 55.4 °F 53.6 °F 94% 29.83 in 6.2 mi WSW 16.1 mph - N/A   Scattered Clouds
8:50 AM 57.2 °F 51.8 °F 82% 29.83 in 6.2 mi WSW 19.6 mph 31.1 mph N/A   Mostly Cloudy
9:50 AM 56 °F 51 °F 79% 29.85 in 9 mi WSW 18.4 mph - - Rain Light Rain Showers
9:50 AM 57.2 °F 51.8 °F 82% 29.83 in 6.2 mi WSW 18.4 mph 29.9 mph N/A   Mostly Cloudy
10:50 AM 59.0 °F 53.6 °F 82% 29.83 in 6.2 mi WSW 17.3 mph 29.9 mph N/A   Mostly Cloudy
11:50 AM 59.0 °F 53.6 °F 82% 29.83 in 6.2 mi SW 20.7 mph 33.4 mph N/A   Mostly Cloudy
12:50 PM 59 °F 52 °F 72% 29.82 in 10 mi SW 21.9 mph - -   Mostly Cloudy
12:50 PM 59.0 °F 51.8 °F 77% 29.80 in 6.2 mi SW 21.9 mph 35.7 mph N/A   Mostly Cloudy
1:50 PM 57.2 °F 53.6 °F 88% 29.80 in 6.2 mi SW 21.9 mph 35.7 mph N/A Rain Light Rain
2:50 PM 57.2 °F 53.6 °F 88% 29.80 in 5.0 mi WSW 21.9 mph 38.0 mph N/A Rain Light Rain
3:50 PM 56 °F 53 °F 88% 29.78 in 6 mi SW 24.2 mph - - Rain Light Rain
3:50 PM 55.4 °F 53.6 °F 94% 29.77 in 6.2 mi SW 24.2 mph 40.3 mph N/A Rain Light Rain
4:50 PM 57.2 °F 53.6 °F 88% 29.74 in 6.2 mi SW 23.0 mph 38.0 mph N/A   Mostly Cloudy
5:50 PM 57.2 °F 53.6 °F 88% 29.74 in 6.2 mi WSW 23.0 mph 36.8 mph N/A   Scattered Clouds
6:50 PM 57 °F 54 °F 85% 29.75 in 6 mi WSW 23.0 mph - - Rain Light Rain
6:50 PM 57.2 °F 53.6 °F 88% 29.74 in 6.2 mi WSW 23.0 mph 36.8 mph N/A   Overcast
7:50 PM 55.4 °F 51.8 °F 88% 29.74 in 6.2 mi West 15.0 mph 29.9 mph N/A   Mostly Cloudy
8:50 PM 57.2 °F 51.8 °F 82% 29.74 in 6.2 mi West 13.8 mph 27.6 mph N/A   Haze
9:50 PM 56 °F 53 °F 85% 29.75 in 11 mi WSW 16.1 mph - -   Haze
9:50 PM 57.2 °F 53.6 °F 88% 29.74 in 6.2 mi WSW 16.1 mph 28.8 mph N/A   Haze
10:50 PM 57.2 °F 51.8 °F 82% 29.74 in 6.2 mi West 15.0 mph 28.8 mph N/A   Haze
11:50 PM 55.4 °F 50.0 °F 82% 29.74 in 6.2 mi West 11.5 mph 25.3 mph N/A Rain Light Rain